Location: Dackenheim
(49.5215°N, 8.1854°E)
Time: 00:04:20
(UTC+00:00)

Cosmos 1743 - Pass Details

Date: 19 May 2025
Orbit: 432 x 442 km, 82.5° (Epoch: 15 June)

Event Time Altitude Azimuth Distance (km) Brightness Sun altitude
Rises 20:13:30 0° 348° (NNW) 2,459 7.2 -8.7°
Reaches altitude 10° 20:15:35 10° 346° (NNW) 1,581 6.2 -9.0°
Maximum altitude 20:19:00 72° 263° (W) 474 2.6 -9.4°
Drops below altitude 10° 20:22:24 10° 178° (S) 1,560 4.7 -9.7°
Enters shadow 20:22:46 - 178° (S) 1,717 4.9 -9.8°
